Calcasieu Lake Weather Center

Moon Phase Calendar



Calcasieu Lake Water Level
Online Cameras

 


      

Current Conditions in Hackberry
1/22/2022 4:55:03 PM

48°F
Feels Like 45
Clear
Humidity
40%
Pressure
30.36"
Wind
7 mph (NNE)
Dew Point
26°F
UV Index
0/10 (Low)
Visibility
6 mi

Hourly Forecast

Date & Time Sat, Jan 22
4:00 PM
Sat, Jan 22
5:00 PM
Sat, Jan 22
6:00 PM
Sat, Jan 22
7:00 PM
Sat, Jan 22
8:00 PM
Sat, Jan 22
9:00 PM
Sat, Jan 22
10:00 PM
Sat, Jan 22
11:00 PM
Sun, Jan 23
12:00 AM
Sun, Jan 23
1:00 AM
Sun, Jan 23
2:00 AM
Sun, Jan 23
3:00 AM
Sun, Jan 23
4:00 AM
Sun, Jan 23
5:00 AM
Sun, Jan 23
6:00 AM
Sun, Jan 23
7:00 AM
Sun, Jan 23
8:00 AM
Sun, Jan 23
9:00 AM
Sun, Jan 23
10:00 AM
Sun, Jan 23
11:00 AM
Sun, Jan 23
12:00 PM
Sun, Jan 23
1:00 PM
Sun, Jan 23
2:00 PM
Sun, Jan 23
3:00 PM
Sun, Jan 23
4:00 PM
Sun, Jan 23
5:00 PM
Sun, Jan 23
6:00 PM
Sun, Jan 23
7:00 PM
Sun, Jan 23
8:00 PM
Sun, Jan 23
9:00 PM
Sun, Jan 23
10:00 PM
Sun, Jan 23
11:00 PM
Mon, Jan 24
12:00 AM
Mon, Jan 24
1:00 AM
Mon, Jan 24
2:00 AM
Mon, Jan 24
3:00 AM
Mon, Jan 24
4:00 AM
Mon, Jan 24
5:00 AM
Mon, Jan 24
6:00 AM
Mon, Jan 24
7:00 AM
Mon, Jan 24
8:00 AM
Mon, Jan 24
9:00 AM
Mon, Jan 24
10:00 AM
Mon, Jan 24
11:00 AM
Mon, Jan 24
12:00 PM
Mon, Jan 24
1:00 PM
Mon, Jan 24
2:00 PM
Mon, Jan 24
3:00 PM
Condition
Clear

Clear

Clear

Clear

Clear

Clear

Clear

Clouds

Clouds

Clouds

Clouds

Clouds

Clouds

Clouds

Clouds

Clear

Clear

Clear

Clear

Clear

Clear

Clear

Clear

Clear

Clear

Clouds

Clouds

Clouds

Clouds

Clouds

Clouds

Clouds

Clouds

Clouds

Clouds

Clouds

Clouds

Clouds

Clouds

Clouds

Clouds

Clouds

Clouds

Rain

Rain

Rain

Rain

Rain
Temperature 48°F48°F47°F44°F41°F38°F34°F33°F33°F32°F32°F31°F31°F31°F31°F32°F34°F39°F43°F47°F50°F53°F55°F56°F56°F52°F48°F47°F45°F45°F44°F44°F44°F44°F44°F45°F47°F47°F47°F48°F48°F50°F51°F50°F49°F48°F49°F48°F
Feels Like 44°F45°F44°F41°F37°F33°F29°F29°F28°F27°F26°F26°F26°F26°F27°F28°F31°F36°F41°F45°F47°F49°F52°F53°F53°F50°F47°F44°F42°F42°F42°F42°F43°F43°F44°F45°F47°F47°F47°F48°F47°F48°F49°F49°F49°F46°F48°F48°F
Cloudiness 0%0%0%0%1%3%5%22%33%96%89%80%65%53%45%5%3%2%2%1%1%0%1%2%7%23%30%98%89%92%80%70%71%68%57%67%75%80%83%100%100%100%100%100%100%100%100%100%
Visibility 6 mi6 mi6 mi6 mi6 mi6 mi6 mi6 mi6 mi6 mi6 mi6 mi6 mi6 mi6 mi6 mi6 mi6 mi6 mi6 mi6 mi6 mi6 mi6 mi6 mi6 mi6 mi6 mi6 mi6 mi6 mi6 mi6 mi6 mi6 mi6 mi6 mi6 mi6 mi6 mi6 mi6 mi6 mi6 mi6 mi6 mi6 mi5 mi
Precipitation 0%0%0%0%0%0%0%0%0%0%0%0%0%0%0%0%0%0%0%0%0%0%0%0%0%0%0%0%0%0%0%0%0%0%0%0%0%0%0%0%0%1%9%59%88%97%100%100%
Humidity 38%40%42%44%48%52%56%57%57%57%58%57%56%55%54%52%48%40%35%34%35%35%36%37%39%50%55%61%65%67%70%71%72%72%73%71%68%67%67%67%67%69%70%77%84%90%92%94%
Dew Point 25°F26°F26°F25°F24°F23°F20°F20°F19°F19°F18°F18°F17°F17°F16°F16°F16°F16°F18°F21°F24°F26°F28°F30°F31°F34°F33°F34°F34°F35°F35°F36°F36°F36°F36°F36°F37°F37°F37°F37°F38°F40°F41°F43°F44°F46°F46°F47°F
Pressure 30.36"30.36"30.36"30.36"30.36"30.39"30.39"30.39"30.39"30.36"30.36"30.33"30.33"30.33"30.33"30.33"30.36"30.33"30.33"30.33"30.3"30.24"30.18"30.18"30.15"30.12"30.12"30.12"30.15"30.15"30.15"30.12"30.12"30.09"30.06"30.06"30.06"30.03"30.03"30.06"30.03"30.03"30.03"30.06"30.03"29.94"29.94"29.94"
Wind Speed 9.6 mph7 mph6.8 mph6.5 mph6.5 mph6.3 mph5.9 mph5.3 mph4.7 mph5.4 mph5.6 mph5.6 mph5.1 mph5.1 mph4.2 mph4 mph3.7 mph3.8 mph3.6 mph4.6 mph3.7 mph3.9 mph3.6 mph3.7 mph3.2 mph2 mph4.1 mph6.2 mph6 mph5.9 mph4.5 mph4 mph3.7 mph3.1 mph1.8 mph1.4 mph2.4 mph0.7 mph2.1 mph2 mph4.7 mph4.4 mph3.5 mph3.1 mph3 mph6.1 mph3 mph3 mph
Wind
Direction
18°
NNE
20°
NNE
27°
NNE
40°
NE
45°
NE
42°
NE
53°
NE
53°
NE
49°
NE
43°
NE
37°
NE
35°
NE
34°
NE
26°
NNE
21°
NNE
12°
NNE

N

N
344°
NNW
359°
N
352°
N
336°
NNW
321°
NW
309°
NW
299°
WNW
229°
SW
219°
SW
203°
SSW
218°
SW
231°
SW
239°
WSW
228°
SW
240°
WSW
242°
WSW
244°
WSW
346°
NNW
327°
NNW
357°
N
152°
SSE
165°
SSE
131°
SE
162°
SSE
168°
SSE
228°
SW
180°
S
141°
SE
130°
SE
109°
ESE

Daily Forecast

Date High Low Precip. Humidity
Today
Jan 22

Clear
49 °F
27 °F
0%
32%
Sunday
Jan 23

Clear
56 °F
31 °F
0%
35%
Monday
Jan 24

Rain
50 °F
44 °F
100%
84%
Tuesday
Jan 25

Rain
58 °F
49 °F
100%
79%
Wednesday
Jan 26

Clouds
53 °F
44 °F
0%
71%
Thursday
Jan 27

Clouds
55 °F
38 °F
0%
55%
Friday
Jan 28

Rain
50 °F
41 °F
100%
92%
Saturday
Jan 29

Clear
50 °F
31 °F
0%
38%
Sunday
Jan 30

Clouds
60 °F
39 °F
0%
45%
Monday
Jan 31

Clear
53 °F
37 °F
0%
46%
Tuesday
Feb 1

Clear
52 °F
36 °F
0%
43%
Wednesday
Feb 2

Clouds
60 °F
41 °F
0%
66%
Thursday
Feb 3

Rain
68 °F
55 °F
77%
76%
Friday
Feb 4

Rain
71 °F
62 °F
38%
73%
Saturday
Feb 5

Rain
74 °F
48 °F
100%
70%
Sunday
Feb 6

Rain
53 °F
41 °F
99%
45%

Temperature 8-14 Day Outlook



Precipitation 8-14 Day Outlook




Quick Links
Calcasieu Lake News
Calcasieu Lake Photos
Calcasieu Lake Videos




About Us
Contact Us
Site Map
Search Site
Advertise With Us
   
Calcasieu.USLakes.info
THE CALCASIEU LAKE WEBSITE

Copyright 2022, Lakes Online
Privacy    |    Legal